User: anonymous   Login
Location: Unspecified
(0.0000°N, 0.0000°E)
Time: 18:50:31
(UTC+00:00)
Language:

Orbcomm A7 (FM11) - Orbit

View from above orbital plane
View from above orbital plane
View from above satellite
View from above satellite

Ground track
Ground track

The orbit data is extracted from the following two-line orbital elements,

1 25114U 97084C   17145.84497593 +.00000109 +00000-0 +81531-4 0  9990
2 25114 045.0172 333.7829 0006797 162.9025 197.2054 14.38551825017067
Epoch (UTC): 25 May 2017 20:16:45
Eccentricity: 0.0006797
inclination: 45.0172°
perigee height: 758 km
apogee height: 768 km
right ascension of ascending node: 333.7829°
argument of perigee: 162.9025°
revolutions per day: 14.38551825
mean anomaly at epoch: 197.2054°
orbit number at epoch: 1706

The dashed part of the orbit path shows where the satellite is in the earth's shadow,  

DLR